Regional Weather Roundup
Issued by NWS

Home | Current Version | Previous Version | Graphics & Text | Print | Product List | Glossary On
Versions: 1 2 3 4 5 6 7 8 9 10 11 12 13 14 15 16 17 18 19 20 21 22 23 24 25 26 27 28 29 30 31 32 33 34 35 36 37 38 39 40 41 42 43 44 45 46 47 48 49 50
706
ASUS45 KCYS 250510
RWRWY

WYOMING REGIONAL WEATHER ROUNDUP
NATIONAL WEATHER SERVICE CHEYENNE WY
1100 PM MDT TUE APR 24 2018

NOTE:  "FAIR" INDICATES FEW OR NO CLOUDS BELOW 12,000 FEET
WITH NO SIGNIFICANT WEATHER AND/OR OBSTRUCTIONS TO VISIBILITY.

WYZ001-250600-
YELLOWSTONE NATIONAL PARK

CITY           SKY/WX    TMP DP  RH WIND       PRES   REMARKS
LK YELLOWSTONE   N/A     24  16  71 CALM      30.42F
W YELLOWSTONE  NOT AVBL

$$
WYZ002>013-054>058-071-098>099-250600-
NORTHERN WYOMING

CITY           SKY/WX    TMP DP  RH WIND       PRES   REMARKS
JACKSON        FAIR      31  22  69 N7        30.38S WCI  24
CODY           FAIR      37  24  59 S10       30.35F WCI  30
GREYBULL       FAIR      41  32  70 SE3       30.37S
WORLAND        FAIR      36  28  73 S12       30.37F WCI  28
SHERIDAN       FAIR      36  28  73 S6        30.32F WCI  31
BUFFALO        FAIR      36  23  59 S9        30.35F WCI  29
GILLETTE       FAIR      31  26  82 S12       30.37F WCI  22
HULETT         FAIR      32  30  93 S7        30.39F WCI  26
NEWCASTLE      FAIR      32  23  69 CALM      30.41F

$$
WYZ014>020-022>026-101>103-250600-
CENTRAL WYOMING

CITY           SKY/WX    TMP DP  RH WIND       PRES   REMARKS
BIG PINEY      FAIR      31  17  56 S8        30.42R WCI  23
PINEDALE       FAIR      32  23  69 S7        30.42F WCI  26
DUBOIS         FAIR      32  21  64 SW7       30.41S WCI  26
LANDER         FAIR      35  23  61 CALM      30.39F
RIVERTON       FAIR      36  21  54 SW3       30.41S
CASPER         FAIR      25  22  88 SW6       30.41F WCI  18
DOUGLAS        FAIR      28  24  85 CALM      30.42F

$$
WYZ021-027>030-104>119-250600-
SOUTHERN WYOMING

CITY           SKY/WX    TMP DP  RH WIND       PRES   REMARKS
EVANSTON       FAIR      38  20  48 E10       30.38F WCI  31
KEMMERER       FAIR      36  19  51 E15       30.40F WCI  26
FORT BRIDGER   FAIR      36  20  53 SE12      30.43S WCI  27
ROCK SPRINGS   FAIR      32  18  56 SE10      30.42F WCI  24
DIXON          FAIR      32  19  59 NE13      30.43S WCI  22
RAWLINS        FAIR      24  16  71 CALM      30.42F
SARATOGA       FAIR      25  18  74 W5        30.43S WCI  19
LARAMIE        FAIR      27  20  75 N6        30.40S WCI  20
CHEYENNE       MOCLDY    32  26  78 N7        30.41F WCI  26
TORRINGTON     FAIR      34  31  88 SE6       30.42S WCI  29
PINE BLUFFS    MOCLDY    28  27  93 MISG      30.43F

$$




USA.gov is the U.S. government's official web portal to all federal, state and local government web resources and services.